Location: Champignolles
(47.0543°N, 4.5663°E)
Time: 18:07:44
(UTC+00:00)

Helios 1A Rocket - Visible Passes

Search period start: 16 April 2021 00:00
Search period end: 26 April 2021 00:00
Orbit: 563 x 585 km, 98.3° (Epoch: 16 April)

Date Brightness Start Highest point End Pass type
(mag) Time Alt. Az. Time Alt. Az. Time Alt. Az.
16 Apr 5.5 19:59:45 10° SW 20:02:44 19° W 20:05:44 10° NW visible
17 Apr 5.6 20:03:01 10° SW 20:05:52 18° W 20:08:46 10° NW visible
18 Apr 5.7 20:06:19 10° SW 20:09:02 17° W 20:11:46 10° NW visible
19 Apr 5.7 20:09:37 10° SW 20:12:11 16° W 20:14:46 10° NW visible
20 Apr 5.7 20:12:57 10° SW 20:15:20 15° W 20:17:45 10° NW visible
21 Apr 5.8 20:16:17 10° WSW 20:18:30 14° W 20:20:43 10° WNW visible
22 Apr 5.8 20:19:39 10° WSW 20:21:39 13° W 20:23:39 10° WNW visible
23 Apr 5.9 20:23:03 10° WSW 20:24:49 12° W 20:26:34 10° WNW visible
24 Apr 5.9 20:26:32 10° WSW 20:27:58 12° W 20:29:24 10° WNW visible
25 Apr 6.0 20:30:07 10° WSW 20:31:07 11° W 20:32:07 10° WNW visible
